Regional Weather Roundup
Issued by NWS

Home | Current Version | Previous Version | Graphics & Text | Print | Product List | Glossary On
Versions: 1 2 3 4 5 6 7 8 9 10 11 12 13 14 15 16 17 18 19 20 21 22 23 24 25 26 27 28 29 30 31 32 33 34 35 36 37 38 39 40 41 42 43 44 45 46 47 48 49 50
000
ASUS45 KTFX 020004
RWRMT
MONTANA HOURLY WEATHER ROUNDUP
NATIONAL WEATHER SERVICE GREAT FALLS MT
504 PM MST SUN MAR 1 2015

NOTE: "FAIR" INDICATES FEW OR NO CLOUDS BELOW 12000 FEET WITH NO
SIGNIFICANT WEATHER AND/OR OBSTRUCTIONS TO VISIBILITY.

* THESE STATIONS ARE NOT UNDER NWS QUALITY CONTROL. THEY DO NOT
   REPORT WEATHER SUCH AS PRECIPITATION OR FOG.

MTZ001>007-043-020100-
WEST OF THE DIVIDE
CITY           SKY/WX    TMP DP  RH WIND       PRES   REMARKS
KALISPELL      PTCLDY    36  10  34 S7        30.04F WCI  30
MISSOULA       MOCLDY    37   5  26 NW3       30.04F
BUTTE          PTCLDY    30   7  38 SE8       30.00F WCI  22
MULLAN PASS    CLOUDY    28   1  31 SW6       29.94F WCI  21
* ANACONDA     PTCLDY    34   9  35 E8         N/A   WCI  27
* ESSEX        N/A       34  -1  22 S4         N/A
* LINCOLN      N/A       36  -2  19 W6G12      N/A   WCI  31
* LOOKOUT PASS N/A       35   1  23 S1         N/A
* POLSON       N/A       33   9  36 SE2        N/A
* RONAN APT    PTCLDY    36  12  37 N/A        N/A
* SEELEY LAKE  N/A       34   2  25 S4         N/A
* THOMP F APT  MOCLDY    34  -2  21 SW3G10     N/A
$$

MTZ008-052>055-020100-
SOUTHWEST MONTANA
CITY           SKY/WX    TMP DP  RH WIND       PRES   REMARKS
BOZEMAN        CLEAR     30   0  27 CALM      30.07F
DILLON         CLEAR     36   1  22 CALM      30.00F
* W YELLOWSTON CLEAR     28  -7  21 N3         N/A
* THREE FORKS  CLEAR     34   3  27 N/A        N/A
* BOULDER HILL N/A       26   2  35 S14        N/A   WCI  14
* MONIDA PASS  N/A       29  -2  26 SE4        N/A
* RAYNOLDS PAS N/A       32  14  47 S2         N/A
* WHITEHALL    N/A       37   4  25 E5G10      N/A   WCI  33
* WISE RIVER   N/A       31   2  29 SE10       N/A   WCI  22
$$

MTZ009>010-012-014-046-048-049-054-020100-
EAST SLOPES AND CENTRAL MONTANA
CITY           SKY/WX    TMP DP  RH WIND       PRES   REMARKS
CUT BANK       MOCLDY    34  10  37 S13       29.95F WCI  25
GREAT FALLS    PTCLDY    34  10  37 S17       30.01F WCI  23
HELENA         PTCLDY    34   9  35 E8        30.05F WCI  27
* DEARBORN     N/A       35   8  32 S12        N/A   WCI  27
* EAST GLACIER N/A       29   4  34 W20G28     N/A   WCI  16
* MONARCH      N/A       31  -1  25 SE1        N/A
* PENDROY      N/A       29  13  51 SW10       N/A   WCI  20
* ROGERS PASS  N/A       28   1  31 E9G16      N/A   WCI  19
* SWEET GRASS  N/A       35   9  34 S16        N/A   WCI  25
$$

MTZ011-013-016-021-035-040-045-047-050-051-020100-
NORTH CENTRAL MONTANA
CITY           SKY/WX    TMP DP  RH WIND       PRES   REMARKS
HAVRE          CLEAR     36   9  32 S8        30.09F WCI  30
LEWISTOWN      CLEAR     30   9  41 E9        30.06F WCI  22
* N BAR RANCH  CLEAR     28   5  37 S10       30.08F WCI  19
* CHESTER      N/A       34  15  46 S11G18     N/A   WCI  26
* DENTON       N/A       32   6  33 SE9        N/A   WCI  24
* GEYSER       N/A       30   7  38 SE11       N/A   WCI  21
* JUDITH GAP   N/A       28   7  41 S14        N/A   WCI  17
* LOMA         N/A       33  16  50 SE11G17    N/A   WCI  24
$$

MTZ017>020-022>027-061-062-020100-
NORTHEAST MONTANA
CITY           SKY/WX    TMP DP  RH WIND       PRES   REMARKS
GLASGOW        CLEAR     27   7  42 SW7       30.23F WCI  19
GLENDIVE       MOCLDY    25   9  50 W3        30.28F
JORDAN         CLEAR     28   9  45 SW7       30.21F WCI  21
SIDNEY         PTCLDY    25  12  58 CALM      30.32F
WOLF POINT     CLOUDY    28   9  45 CALM      30.27F
* BEAVER HILL  N/A       22  10  60 W7         N/A   WCI  13
* CIRCLE       N/A       28  14  56 S2G8       N/A
* LINDSAY DVD  N/A       23   8  52 SW6        N/A   WCI  16
* NAVAJO       N/A       24   5  44 W2         N/A
* SACO         N/A       29   9  43 S12        N/A   WCI  19
$$

MTZ028>042-056>058-020100-
SOUTHCENTRAL AND SOUTHEAST MONTANA
CITY           SKY/WX    TMP DP  RH WIND       PRES   REMARKS
BAKER          CLOUDY    21   9  60 W9        30.27S WCI  11
BILLINGS       FAIR      34   3  27 SW8       30.14F WCI  27
LIVINGSTON     CLEAR     32   5  32 SE6       30.05F WCI  26
MILES CITY     CLEAR     27   9  46 E3        30.26F
* LAUREL APT   CLEAR     34   3  27 S5         N/A   WCI  29
* ROUNDUP APT  CLEAR     36  -6  16 N/A        N/A
* ALZADA       N/A       23   8  52 W6         N/A   WCI  16
* HYSHAM       N/A       26   6  42 E7         N/A   WCI  18
* LAME DEER    N/A       23   7  50 S3G8       N/A
* REED POINT   N/A       30   5  34 SE5        N/A   WCI  25
* ROSCOE HILL  N/A       23   4  44 E4         N/A
$$

REGIONAL REPORTS...DAKOTAS
CITY           SKY/WX    TMP DP  RH WIND       PRES   REMARKS
WILLISTON      CLEAR     25   9  50 NW3       30.29S
DICKINSON      LGT SNOW  21  10  62 W9        30.26S WCI  11
BEACH          FAIR      23  10  57 W5        30.27F WCI  16
CROSBY         CLEAR     18   9  68 W8        30.28S WCI   8
WATFORD CITY   CLEAR     19  10  68 SW7       30.27F WCI  10
BISMARCK       CLEAR     23   9  55 NW13      30.34R WCI  11
GRAND FORKS    PTCLDY    18   7  62 NW10      30.29R WCI   6
FARGO          CLOUDY    21  10  62 NW14      30.31R WCI   8
BUFFALO SD     PTCLDY    25   9  50 NW15      30.20S WCI  13
RAPID CITY     CLEAR     25  12  58 N16       30.26R WCI  12
$$

REGIONAL REPORTS...WYOMING/IDAHO/WASHINGTON
CITY           SKY/WX    TMP DP  RH WIND       PRES   REMARKS
GILLETTE       CLEAR     27   3  35 CALM      30.18F
SHERIDAN       CLEAR     25   9  50 S6        30.18F WCI  18
CODY           CLEAR     27  14  58 SE10      30.09F WCI  18
YELLOWSTONE LA CLEAR     19  -8  29 CALM      30.01F
SALMON         CLEAR     37   9  31 NW3       30.01F
MULLAN PASS    CLOUDY    28   1  31 SW6       29.94S WCI  21
SAND POINT     CLOUDY    37  16  42 CALM      30.06F
SPOKANE        MOCLDY    43  10  26 VRB5      30.03F
$$

REGIONAL REPORTS...SASKATCHEWAN
CITY           SKY/WX    TMP DP  RH WIND       PRES   REMARKS
MOOSE JAW      N/A       21  14  74 W6        30.23F WCI  13

$$



USA.gov is the U.S. government's official web portal to all federal, state and local government web resources and services.